Tracking 27405 objects as of 2-Jun-2023
HD Live streaming from Space Station
objects crossing your sky now

INSAT 3A

Track INSAT 3A now!
INSAT 3A is classified as:


NORAD ID: 27714
Int'l Code: 2003-013A
Perigee: 35,874.7 km
Apogee: 35,975.7 km
Inclination: 6.1 °
Period: 1,442.8 minutes
Semi major axis: 42296 km
RCS: 22.0529 m2 (large)
Launch date: April 9, 2003
Source: India (IND)
Launch site: FRENCH GUIANA (FRGUI)

12 C-band, 6 extended C-band, 6 Ku-band for voice, video and data transmission to West Asia, East Asia, India; augment present INSAT capacity for communication and meteorological services.
Your satellite tracking list
Your tracking list is empty




NASA's NSSDC Master Catalog

Two Line Element Set (TLE):
1 27714U 03013A   23151.95316299  .00000133  00000-0  00000-0 0  9991
2 27714   6.1253  72.4516 0011941 320.2739 232.1263  0.99804536 73628
Source of the keplerian elements: AFSPC